Flag for Sweden Weather past 2 weeks in Södertälje, Sweden

Now
52 °F

Fog.


Feels Like: 52 °F
Forecast: 45 / 52 °F
Wind: 2 mph from North

Location: Stockholm Bromma Airport

Current Time: Sep 21, 2014 at 9:08:51 AM

Latest Report: Sep 21, 2014 at 8:20 AM


Visibility: 3 mi

Pressure: 29.77 "Hg

Humidity: 100%

Dew point: 52 °F

Location of SödertäljeLocation

Historic Weather in Södertälje — Graph

°F

Södertälje temperature yesterday

Maximum temperature yesterday: 66 °F (at 1:50 PM)
Minimum temperature yesterday: 48 °F (at 12:20 AM)
Average temperature yesterday: 57 °F

Past Weeks' High & Low Weather Summary

 TemperatureHumidityPressure
High70 °F (Sep 8, 1:20 PM)100% (Sep 6, 7:20 AM)30.48 "Hg (Sep 6, 7:20 AM)
Low39 °F (Sep 17, 5:20 AM)52% (Sep 14, 2:20 PM)29.77 "Hg (Sep 21, 7:20 AM)
Average57 °F84%30.17 "Hg
* Reported Sep 6 7:20 AM — Sep 21 7:50 AM, Södertälje, Weather by CustomWeather, © 2014

Note: Actual official high and low records may vary slightly from our data, if they occured in-between our weather recording intervals... More about our weather records

Advertising

Södertälje weather history for previous 24 hours

 ConditionsComfort  
Time TempWeatherWind HumidityBarometerVisibility
7:50 AM
Sep 21
52 °FFog.2 mph100%29.77 "Hg3 mi
7:20 AM52 °FFog.2 mph100%29.77 "Hg3 mi
6:50 AM52 °FLow clouds.3 mph100%29.80 "Hg3 mi
6:20 AM54 °FLow clouds.3 mph100%29.80 "Hg2 mi
5:50 AM54 °FFog.5 mph100%29.80 "Hg1 mi
5:20 AM54 °FLow clouds.1 mph100%29.80 "Hg1 mi
4:50 AM54 °FFog.5 mph100%29.80 "Hg0 mi
4:20 AM54 °FFog.3 mph100%29.80 "Hg0 mi
3:50 AM54 °FFog.3 mph100%29.83 "Hg0 mi
3:20 AM55 °FFog.3 mph100%29.83 "Hg0 mi
2:50 AM55 °FFog.5 mph100%29.83 "Hg0 mi
2:20 AM55 °FFog.3 mph100%29.83 "Hg0 mi
1:50 AM55 °FFog.3 mph100%29.83 "Hg1 mi
1:20 AM55 °FLow clouds.3 mph100%29.86 "Hg1 mi
12:20 AM52 °FFog.No wind100%29.86 "Hg0 mi
11:50 PM
Sep 20
52 °FLight fog.No wind100%29.86 "Hg0 mi
11:20 PM52 °FFog.2 mph100%29.86 "Hg0 mi
10:50 PM52 °FFog.3 mph100%29.86 "Hg1 mi
10:20 PM54 °FFog.5 mph94%29.89 "Hg1 mi
9:50 PM54 °FFog.3 mph94%29.89 "Hg1 mi
9:20 PM52 °FFog.3 mph100%29.89 "Hg1 mi
8:50 PM54 °FFog.2 mph100%29.89 "Hg1 mi
8:20 PM55 °FFog.3 mph94%29.89 "Hg3 mi
7:50 PM57 °FFog.5 mph88%29.89 "Hg4 mi
3:20 PM66 °FPassing clouds.7 mph68%29.92 "HgN/A
2:50 PM64 °FSunny.6 mph73%29.95 "Hg10 mi
2:20 PM64 °FPassing clouds.6 mph68%29.95 "HgN/A
1:50 PM66 °FScattered clouds.5 mph64%29.95 "HgN/A
1:20 PM64 °FPassing clouds.5 mph73%29.95 "HgN/A
12:50 PM64 °FPassing clouds.3 mph68%29.95 "HgN/A
12:20 PM63 °FPassing clouds.6 mph73%29.98 "HgN/A
11:50 AM63 °FSunny.6 mph73%29.98 "Hg10 mi
11:20 AM61 °FPassing clouds.5 mph83%29.98 "HgN/A
10:50 AM59 °FFog.3 mph82%29.98 "Hg5 mi
10:20 AM59 °FPassing clouds.No wind82%30.01 "HgN/A
9:50 AM57 °FFog.2 mph88%30.01 "Hg6 mi
9:20 AM57 °FFog.3 mph88%30.01 "Hg5 mi
Weather by CustomWeather, © 2014

See weather overviewHow to use our weather pages